TimeEDT,TemperatureF,Dew PointF,Humidity,Sea Level PressureIn,VisibilityMPH,Wind Direction,Wind SpeedMPH,Gust SpeedMPH,PrecipitationIn,Events,Conditions,WindDirDegrees,DateUTC
12:53 AM,75.9,70.0,82,30.09,10.0,SSW,5.8,-,N/A,,Overcast,210,2013-05-19 04:53:00
1:22 AM,77.0,70.0,79,30.09,10.0,SE,5.8,-,N/A,,Overcast,130,2013-05-19 05:22:00
1:44 AM,77.0,70.0,79,30.08,10.0,SE,8.1,-,N/A,,Overcast,130,2013-05-19 05:44:00
1:53 AM,77.0,70.0,79,30.07,10.0,SSE,8.1,-,N/A,,Overcast,150,2013-05-19 05:53:00
2:27 AM,75.0,70.0,84,30.06,10.0,SE,6.9,-,N/A,,Mostly Cloudy,140,2013-05-19 06:27:00
2:53 AM,75.0,70.0,84,30.05,10.0,SSE,4.6,-,N/A,,Partly Cloudy,150,2013-05-19 06:53:00
3:39 AM,75.0,70.0,84,30.06,10.0,ESE,6.9,-,N/A,,Mostly Cloudy,110,2013-05-19 07:39:00
3:53 AM,73.9,70.0,87,30.05,10.0,ESE,5.8,-,N/A,,Overcast,120,2013-05-19 07:53:00
4:16 AM,73.9,70.0,87,30.05,10.0,Variable,5.8,-,N/A,,Mostly Cloudy,0,2013-05-19 08:16:00
4:53 AM,73.9,70.0,87,30.04,10.0,SSE,8.1,-,N/A,,Scattered Clouds,150,2013-05-19 08:53:00
5:53 AM,73.0,69.1,87,30.05,10.0,South,8.1,-,N/A,,Clear,170,2013-05-19 09:53:00
6:53 AM,72.0,68.0,87,30.07,10.0,South,10.4,-,N/A,,Clear,180,2013-05-19 10:53:00
8:53 AM,75.0,66.9,76,30.11,10.0,SSE,5.8,-,N/A,,Clear,160,2013-05-19 12:53:00
9:53 AM,78.1,68.0,71,30.11,10.0,SW,5.8,-,N/A,,Clear,230,2013-05-19 13:53:00
10:53 AM,82.0,66.0,58,30.12,10.0,SW,6.9,-,N/A,,Clear,220,2013-05-19 14:53:00
11:53 AM,84.9,64.0,49,30.11,10.0,Variable,4.6,-,N/A,,Clear,0,2013-05-19 15:53:00
12:53 PM,87.1,60.1,40,30.09,10.0,SW,6.9,-,N/A,,Clear,220,2013-05-19 16:53:00
1:53 PM,89.1,62.1,40,30.05,10.0,SW,4.6,-,N/A,,Partly Cloudy,220,2013-05-19 17:53:00
3:53 PM,91.0,61.0,36,30.01,10.0,Variable,3.5,-,N/A,,Overcast,0,2013-05-19 19:53:00
4:42 PM,84.0,68.0,58,30.01,10.0,East,15.0,-,N/A,,Overcast,90,2013-05-19 20:42:00
4:53 PM,86.0,69.1,57,30.00,10.0,East,13.8,-,N/A,,Overcast,100,2013-05-19 20:53:00
5:53 PM,84.0,66.9,56,30.01,10.0,ESE,11.5,-,N/A,,Clear,110,2013-05-19 21:53:00
6:53 PM,81.0,66.9,62,30.03,10.0,ESE,6.9,-,N/A,,Clear,120,2013-05-19 22:53:00
7:53 PM,81.0,66.0,60,30.05,10.0,SE,5.8,-,N/A,,Mostly Cloudy,130,2013-05-19 23:53:00
8:53 PM,80.1,69.1,69,30.05,10.0,SE,5.8,-,N/A,,Mostly Cloudy,130,2013-05-20 00:53:00
9:53 PM,78.1,70.0,76,30.08,10.0,ESE,6.9,-,N/A,,Scattered Clouds,110,2013-05-20 01:53:00
10:53 PM,77.0,70.0,79,30.11,10.0,ESE,5.8,-,N/A,,Mostly Cloudy,110,2013-05-20 02:53:00
11:53 PM,77.0,68.0,74,30.11,10.0,ESE,9.2,-,N/A,,Overcast,120,2013-05-20 03:53:00